Location: Krakow
(50.0830°N, 19.9170°E)
Time: 07:10:47
(UTC+02:00)

Tiros 1 despin weight - Pass Details

Date: 24 March 2026
Orbit: 555 x 592 km, 48.2° (Epoch: 18 April)

Event Time Altitude Azimuth Distance (km) Brightness Sun altitude
Rises 01:04:45 0° 211° (SSW) 2,811 - -35.9°
Reaches altitude 10° 01:07:25 10° 196° (SSW) 1,915 - -35.7°
Maximum altitude 01:10:47 22° 146° (SE) 1,317 - -35.5°
Drops below altitude 10° 01:14:09 10° 96° (E) 1,919 - -35.3°
Exits shadow 01:15:32 - 86° (E) 2,365 ? -35.2°
Sets 01:16:49 0° 81° (E) 2,820 ? -35.1°
